Time,TemperatureF,DewpointF,PressureIn,WindDirection,WindDirectionDegrees,WindSpeedMPH,WindSpeedGustMPH,Humidity,HourlyPrecipIn,Conditions,Clouds,dailyrainin,SolarRadiationWatts/m^2,SoftwareType,DateUTC
2013-06-22 08:02:00,54.0,30.0,-100.00,SE,133,0.0,0.0,39,-99.99,,,0.00,103.000000,,2013-06-22 15:02:00,
2013-06-22 08:34:00,54.0,30.0,-100.00,SE,133,0.0,0.0,39,-99.99,,,0.00,103.000000,,2013-06-22 15:34:00,
2013-06-22 08:43:00,54.0,30.0,-100.00,SE,133,0.0,0.0,39,-99.99,,,0.00,103.000000,,2013-06-22 15:43:00,
2013-06-22 08:53:00,54.0,30.0,-100.00,SE,133,0.0,0.0,39,-99.99,,,0.00,103.000000,,2013-06-22 15:53:00,
2013-06-22 09:34:00,71.0,32.0,-100.00,ESE,109,0.0,0.0,24,-99.99,,,0.00,579.000000,,2013-06-22 16:34:00,
2013-06-22 09:43:00,71.0,32.0,-100.00,ESE,109,0.0,0.0,24,-99.99,,,0.00,579.000000,,2013-06-22 16:43:00,
2013-06-22 09:52:00,71.0,32.0,-100.00,ESE,109,0.0,0.0,24,-99.99,,,0.00,579.000000,,2013-06-22 16:52:00,
2013-06-22 10:01:00,71.0,32.0,-100.00,ESE,109,0.0,0.0,24,-99.99,,,0.00,579.000000,,2013-06-22 17:01:00,
2013-06-22 10:34:00,73.0,26.0,-100.00,ENE,74,2.0,4.0,17,0.00,,,0.00,787.000000,,2013-06-22 17:34:00,
2013-06-22 11:23:00,75.0,29.0,-100.00,SW,234,2.0,7.0,18,0.00,,,0.00,953.000000,,2013-06-22 18:23:00,
2013-06-22 11:34:00,75.0,29.0,-100.00,SW,234,2.0,7.0,18,0.00,,,0.00,953.000000,,2013-06-22 18:34:00,
2013-06-22 11:43:00,75.0,29.0,-100.00,SW,234,2.0,7.0,18,0.00,,,0.00,953.000000,,2013-06-22 18:43:00,
2013-06-22 11:52:00,75.0,29.0,-100.00,SW,234,2.0,7.0,18,0.00,,,0.00,953.000000,,2013-06-22 18:52:00,
2013-06-22 12:01:00,75.0,29.0,-100.00,SW,234,2.0,7.0,18,0.00,,,0.00,953.000000,,2013-06-22 19:01:00,
2013-06-22 12:02:00,78.0,37.0,-100.00,NW,321,3.0,10.0,23,0.00,,,0.00,995.000000,,2013-06-22 19:02:00,
2013-06-22 12:33:00,78.0,37.0,-100.00,NW,321,3.0,10.0,23,0.00,,,0.00,995.000000,,2013-06-22 19:33:00,
2013-06-22 12:43:00,78.0,37.0,-100.00,NW,321,3.0,10.0,23,0.00,,,0.00,995.000000,,2013-06-22 19:43:00,
2013-06-22 12:53:00,78.0,37.0,-100.00,NW,321,3.0,10.0,23,0.00,,,0.00,995.000000,,2013-06-22 19:53:00,
2013-06-22 13:34:00,77.0,34.0,-100.00,NNW,328,4.0,10.0,21,0.00,,,0.00,1097.000000,,2013-06-22 20:34:00,
2013-06-22 13:43:00,77.0,34.0,-100.00,NNW,328,4.0,10.0,21,0.00,,,0.00,1097.000000,,2013-06-22 20:43:00,
2013-06-22 13:53:00,77.0,34.0,-100.00,NNW,328,4.0,10.0,21,0.00,,,0.00,1097.000000,,2013-06-22 20:53:00,
2013-06-22 14:01:00,77.0,34.0,-100.00,NNW,328,4.0,10.0,21,0.00,,,0.00,1097.000000,,2013-06-22 21:01:00,
2013-06-22 14:34:00,77.0,34.0,-100.00,NNW,336,4.0,17.0,21,0.00,,,0.00,1118.000000,,2013-06-22 21:34:00,
2013-06-22 14:43:00,77.0,34.0,-100.00,NNW,336,4.0,17.0,21,0.00,,,0.00,1118.000000,,2013-06-22 21:43:00,
2013-06-22 14:53:00,77.0,34.0,-100.00,NNW,336,4.0,17.0,21,0.00,,,0.00,1118.000000,,2013-06-22 21:53:00,
2013-06-22 15:01:00,77.0,34.0,-100.00,NNW,336,4.0,17.0,21,0.00,,,0.00,1118.000000,,2013-06-22 22:01:00,
2013-06-22 15:33:00,79.0,34.0,-100.00,SSW,211,4.0,12.0,20,0.00,,,0.00,1063.000000,,2013-06-22 22:33:00,
2013-06-22 15:43:00,79.0,34.0,-100.00,SSW,211,4.0,12.0,20,0.00,,,0.00,1063.000000,,2013-06-22 22:43:00,
2013-06-22 15:52:00,79.0,34.0,-100.00,SSW,211,4.0,12.0,20,0.00,,,0.00,1063.000000,,2013-06-22 22:52:00,
2013-06-22 16:01:00,79.0,34.0,-100.00,SSW,211,4.0,12.0,20,0.00,,,0.00,1063.000000,,2013-06-22 23:01:00,
2013-06-22 16:34:00,78.0,35.0,-100.00,NNW,330,5.0,17.0,21,0.00,,,0.00,947.000000,,2013-06-22 23:34:00,
2013-06-22 16:43:00,78.0,35.0,-100.00,NNW,330,5.0,17.0,21,0.00,,,0.00,947.000000,,2013-06-22 23:43:00,
2013-06-22 16:52:00,78.0,35.0,-100.00,NNW,330,5.0,17.0,21,0.00,,,0.00,947.000000,,2013-06-22 23:52:00,
2013-06-22 17:01:00,78.0,35.0,-100.00,NNW,330,5.0,17.0,21,0.00,,,0.00,947.000000,,2013-06-23 00:01:00,
2013-06-22 17:34:00,78.0,32.0,-100.00,NW,319,3.0,16.0,19,0.00,,,0.00,783.000000,,2013-06-23 00:34:00,
2013-06-22 17:42:00,78.0,32.0,-100.00,NW,319,3.0,16.0,19,0.00,,,0.00,783.000000,,2013-06-23 00:42:00,
2013-06-22 17:53:00,78.0,32.0,-100.00,NW,319,3.0,16.0,19,0.00,,,0.00,783.000000,,2013-06-23 00:53:00,
2013-06-22 18:01:00,78.0,32.0,-100.00,NW,319,3.0,16.0,19,0.00,,,0.00,783.000000,,2013-06-23 01:01:00,
2013-06-22 18:22:00,74.0,32.0,-100.00,NW,325,3.0,13.0,21,0.00,,,0.00,557.000000,,2013-06-23 01:22:00,
2013-06-22 18:32:00,74.0,32.0,-100.00,NW,325,3.0,13.0,21,0.00,,,0.00,557.000000,,2013-06-23 01:32:00,
2013-06-22 18:42:00,74.0,32.0,-100.00,NW,325,3.0,13.0,21,0.00,,,0.00,557.000000,,2013-06-23 01:42:00,
2013-06-22 18:52:00,74.0,32.0,-100.00,NW,325,3.0,13.0,21,0.00,,,0.00,557.000000,,2013-06-23 01:52:00,
2013-06-22 19:01:00,74.0,32.0,-100.00,NW,325,3.0,13.0,21,0.00,,,0.00,557.000000,,2013-06-23 02:01:00,
2013-06-22 19:21:00,70.0,30.0,-100.00,NNE,13,2.0,9.0,23,0.00,,,0.00,81.000000,,2013-06-23 02:21:00,
2013-06-22 19:31:00,70.0,30.0,-100.00,NNE,13,2.0,9.0,23,0.00,,,0.00,81.000000,,2013-06-23 02:31:00,
2013-06-22 19:41:00,70.0,30.0,-100.00,NNE,13,2.0,9.0,23,0.00,,,0.00,81.000000,,2013-06-23 02:41:00,
2013-06-22 19:52:00,70.0,30.0,-100.00,NNE,13,2.0,9.0,23,0.00,,,0.00,81.000000,,2013-06-23 02:52:00,
2013-06-22 20:01:00,70.0,30.0,-100.00,NNE,13,2.0,9.0,23,0.00,,,0.00,81.000000,,2013-06-23 03:01:00,
2013-06-22 20:21:00,65.0,32.0,-100.00,NE,40,0.0,8.0,29,0.00,,,0.00,72.000000,,2013-06-23 03:21:00,
2013-06-22 20:31:00,65.0,32.0,-100.00,NE,40,0.0,8.0,29,0.00,,,0.00,72.000000,,2013-06-23 03:31:00,
2013-06-22 20:41:00,65.0,32.0,-100.00,NE,40,0.0,8.0,29,0.00,,,0.00,72.000000,,2013-06-23 03:41:00,
2013-06-22 20:51:00,65.0,32.0,-100.00,NE,40,0.0,8.0,29,0.00,,,0.00,72.000000,,2013-06-23 03:51:00,
2013-06-22 21:01:00,65.0,32.0,-100.00,NE,40,0.0,8.0,29,0.00,,,0.00,72.000000,,2013-06-23 04:01:00,
2013-06-22 21:21:00,59.0,32.0,-100.00,East,96,0.0,0.0,36,0.00,,,0.00,5.000000,,2013-06-23 04:21:00,
2013-06-22 21:31:00,59.0,32.0,-100.00,East,96,0.0,0.0,36,0.00,,,0.00,5.000000,,2013-06-23 04:31:00,
2013-06-22 21:42:00,59.0,32.0,-100.00,East,96,0.0,0.0,36,0.00,,,0.00,5.000000,,2013-06-23 04:42:00,
2013-06-22 21:52:00,59.0,32.0,-100.00,East,96,0.0,0.0,36,0.00,,,0.00,5.000000,,2013-06-23 04:52:00,
2013-06-22 22:01:00,59.0,32.0,-100.00,East,96,0.0,0.0,36,0.00,,,0.00,5.000000,,2013-06-23 05:01:00,
2013-06-22 22:02:00,55.0,31.0,-100.00,East,93,0.0,0.0,40,0.00,,,0.00,0.000000,,2013-06-23 05:02:00,
2013-06-22 22:22:00,55.0,31.0,-100.00,East,93,0.0,0.0,40,0.00,,,0.00,0.000000,,2013-06-23 05:22:00,
2013-06-22 22:32:00,55.0,31.0,-100.00,East,93,0.0,0.0,40,0.00,,,0.00,0.000000,,2013-06-23 05:32:00,
2013-06-22 22:41:00,55.0,31.0,-100.00,East,93,0.0,0.0,40,0.00,,,0.00,0.000000,,2013-06-23 05:41:00,
2013-06-22 22:51:00,55.0,31.0,-100.00,East,93,0.0,0.0,40,0.00,,,0.00,0.000000,,2013-06-23 05:51:00,
2013-06-22 23:02:00,52.0,31.0,-100.00,East,83,0.0,6.0,44,0.00,,,0.00,0.000000,,2013-06-23 06:02:00,
2013-06-22 23:43:00,52.0,31.0,-100.00,East,83,0.0,6.0,44,0.00,,,0.00,0.000000,,2013-06-23 06:43:00,
2013-06-22 23:52:00,52.0,31.0,-100.00,East,83,0.0,6.0,44,0.00,,,0.00,0.000000,,2013-06-23 06:52:00,